{"data":{"norad_id":65969,"intl_designator":"2025-228Y","name":"KUIPER-00154","alt_names":[],"object_type":"PAYLOAD","status":"ACTIVE","operator":null,"country":"US","launch_date":"2025-10-14","launch_site_code":"AFETR","launch_vehicle":null,"mission":null,"orbit_class":"UNKNOWN","rcs_meters":null,"size_class":null,"mass_kg":null,"dimensions":null,"purposes":[],"wikipedia_slug":null,"has_3d_model":false,"image_url":null,"decayed_at":null,"tle_current":{"epoch":"2026-09-20T17:57:50.086368Z","epoch_age_seconds":118987,"freshness":"FRESH","line1":"1 65969U 25228Y   26263.74849637  .00002097  00000+0  30398-3 0  9994","line2":"2 65969  51.8994 193.0514 0000974  84.6299 275.4774 14.79929352 52468","mean_motion":14.79929352,"eccentricity":9.74e-5,"inclination_deg":51.8994,"raan_deg":193.0514,"arg_perigee_deg":84.6299,"mean_anomaly_deg":275.4774,"bstar":0.00030398,"rev_number":5246,"period_min":97.301942018648,"perigee_km":628.86459659495,"apogee_km":630.2296934664,"semimajor_km":7007.6841450307,"source":"CELESTRAK","updated_at":"2026-09-21T09:00:15.684462Z"}}}